Погода в Хофе

Германия     50°18′59″N   11°54′07″E
темп.,
°C
ветер,
м/с
пор.,
м/с
влажн.,
%
обл.,
%
осадки,
мм/ч
давл.,
гПа
погр.,
м
24 июля, сб
сб2423:00+15всв22920 0.0 101520
02:00+14вюв22911 0.0 101415
05:00+13юв229221 0.0 101327
08:00+18юв24775 0.0 1012173
11:00+24юв3552100 0.0 10121248
14:00+26ююв3441100 0.0 10112117
17:00+22вюв3762100 0.0 1011388
20:00+20вюв387236 0.0 1009233
25 июля, вс
вс2523:00+17ююз2379100 0.1 101151
02:00+16ююз1294100 0.2 101147
05:00+15юз2595100 0.0 1011127
08:00+18ююз138328 0.0 1012260
11:00+22юз22691 0.4 1011798
14:00+23юз1268100 2.1 10111070
17:00+19вюв128187 3.2 1011208
20:00+18з119264 3.9 101234
26 июля, пн
пн2623:00+17ююз2290100 0.0 101331
02:00+14зюз2294100 0.0 101316
05:00+14ююз1193100 0.0 101313
08:00+18юз11825 0.0 1013139
11:00+23юз236029 0.0 10131042
14:00+24з3557100 0.4 10131548
17:00+22зюз4665100 0.1 10141044
20:00+18зюз379171 1.3 1014302
27 июля, вт
вт2723:00+15юз239579 0.3 101645
02:00+15ююз22950 1.3 101516
05:00+14ююз22953 0.0 101518
08:00+17ююз239092 0.0 1016199
11:00+21ююз247022 0.1 10151027
14:00+23юз3462100 0.6 10141377
17:00+21юз3373100 1.0 1014895
20:00+16з3893100 4.6 1015262
28 июля, ср
ср2823:00+14юз239599 0.1 101646
02:00+12ююз23960 0.1 101549
05:00+12ю22975 0.0 101437
08:00+15ю249144 0.0 1014211
11:00+20юз466566 0.0 1013996
14:00+19юз597199 0.1 1014987
17:00+20зюз58689 0.0 10141007
20:00+17зюз48821 0.0 1015631